SCP
-0 -0 -0 -0 -0 -0 -0 -0 0 0 0 -0 0 0 0 0 0 0 0 0 -0 0 0 0 0 0 0 0 0 0 -0 0 0 -0 0 0 0 0 -0 -0 -0 0 0 0
-0 -0 -0 -0 -0 -0 -0 -0 0 0 0 0 -0 0 0 0 0 0 0 0 0 0 0 0 0 0 0 0 0 0 0 0 -0 0 0 0 0 -0 -0 0 -0 0 0 0
-0 -0 -0 -0 -0 -0 -0 -0 0 0 0 0 0 -0 0 0 0 0 0 0 0 0 -0 0 0 0 0 0 0 0 0 0 -0 0 0 0 0 -0 0 -0 0 0 -0 0
-0 -0 -0 -0 -0 -0 -0 -0 -0 0 -0 -0 0 0 0 0 0 0 0 0 0 0 0 0 0 0 0 0 0 0 0 -0 -0 0 0 -0 -0 -0 0 0 0 -0 -0 0
-0 -0 -0 -0 -0 -0 -0 -0 -0 0 0 0 0 0 0 0 0 0 0 0 0 0 0 0 0 0 0 0 0 0 0 0 0 0 -0 -0 -0 -0 -0 0 0 0 0 -0
-0 -0 -0 -0 -0 -0 -0 -0 -0 -0 0 0 0 0 0 0 0 0 0 0 0 0 0 0 0 0 0 0 0 0 0 0 0 0 0 0 0 0 0 0 0 0 0 0
-0 -0 -0 -0 -0 -0 -0 -0 -0 -0 0 0 0 0 0 0 0 0 0 0 0 0 0 0 0 0 0 0 0 0 0 0 0 0 0 0 -0 0 0 0 -0 0 0 0
-0 -0 -0 -0 -0 -0 -0 -0 -0 -0 0 0 0 0 0 0 0 0 0 0 0 0 0 0 0 0 0 0 0 0 0 0 0 0 0 0 -0 0 0 0 0 0 0 0
-0 -0 -0 -0 -0 -0 -0 -0 -0 -0 -0 -0 0 0 0 0 0 0 0 0 0 0 0 0 0 0 0 0 0 0 0 0 0 0 0 0 -0 0 0 0 0 0 0 0
-0 -0 -0 -0 -0 -0 0 0 -0 -0 -0 0 0 0 0 0 0 0 0 0 0 0 0 0 0 0 0 0 0 0 0 0 0 0 0 0 0 0 0 0 0 0 0 0
-0 -0 -0 -0 -0 -0 0 -0 0 -0 -0 0 0 0 0 0 0 0 0 0 0 0 0 0 0 0 0 0 0 0 0 0 0 0 0 0 0 0 1 1 1 1 0 0
-0 -0 -0 -0 -0 -0 0 -0 -0 -0 -0 0 0 0 0 0 0 0 0 0 0 0 0 0 0 0 0 0 0 0 0 0 0 0 1 0 0 0 0 1 1 0 0 0
-0 -0 -0 -0 -0 0 -0 -0 -0 -0 -0 0 0 0 0 0 0 0 0 0 0 0 0 0 0 0 0 0 0 0 0 0 0 0 0 0 0 0 0 0 0 0 0 0
-0 -0 -0 -0 0 -0 -0 0 0 0 -0 -0 0 0 0 0 0 0 0 0 0 0 0 0 0 0 0 0 0 0 0 0 0 0 0 0 0 0 0 0 0 0 0 0
-0 -0 -0 -0 -0 -0 -0 0 0 0 0 0 0 0 0 0 0 0 0 0 0 0 0 0 0 0 0 0 0 0 0 0 0 0 0 0 0 0 0 0 0 0 0 0
-0 -0 0 -0 -0 -0 -0 0 0 0 0 0 0 0 0 0 0 0 0 0 0 0 0 0 0 -0 0 0 0 0 0 0 0 0 0 0 0 0 0 0 0 0 0 0
-0 -0 0 -0 -0 0 0 0 0 0 0 0 0 0 0 0 0 0 0 0 0 0 0 0 0 0 0 0 0 -0 0 0 0 0 0 0 0 0 0 0 0 0 0 0
-0 0 -0 -0 0 0 0 0 0 0 0 0 0 0 0 0 0 0 0 0 0 0 0 0 0 0 0 0 0 0 0 0 0 0 0 0 0 0 0 0 0 0 0 0
0 -0 -0 0 -0 0 0 0 0 0 0 0 0 0 0 0 0 0 0 0 0 0 0 0 0 0 0 0 0 0 0 0 0 0 0 0 0 0 0 0 0 0 0 0
-0 -0 -0 0 0 0 0 0 0 0 0 0 0 0 0 0 0 0 0 0 0 0 0 0 0 0 0 0 0 0 0 0 0 0 0 0 0 0 0 0 0 0 0 0
0 0 0 0 0 0 0 0 0 0 0 0 0 0 0 0 0 0 0 0 0 0 0 0 0 0 0 0 -0 0 0 0 0 0 0 0 0 0 0 0 0 0 0 0
0 0 0 0 0 0 0 0 0 0 0 0 0 0 0 0 0 0 0 0 0 0 0 0 0 0 0 0 0 0 0 0 0 0 0 0 0 0 0 0 0 0 0 0
0 0 0 0 0 0 0 0 0 0 0 0 0 0 0 0 0 0 0 0 0 0 0 0 0 0 0 0 0 0 0 0 0 0 0 0 0 0 0 0 0 0 0 0
0 0 0 0 0 0 0 0 0 0 0 0 0 0 0 0 0 0 0 0 0 0 0 0 0 0 0 0 0 0 0 0 0 0 0 0 0 0 0 0 0 0 0 0
0 0 0 0 0 0 0 0 0 0 0 0 0 0 0 0 0 0 0 0 0 0 0 0 0 0 0 0 0 0 0 0 0 0 0 0 0 0 0 0 0 0 0 0
0 0 0 0 0 0 0 0 0 0 0 0 0 0 0 0 0 0 0 0 0 0 0 0 0 0 0 0 0 0 0 0 0 0 0 0 0 0 0 0 0 0 0 0
0 0 0 0 0 0 0 0 0 0 0 0 0 0 0 0 0 0 0 0 0 0 0 0 0 0 0 0 0 0 0 0 0 0 0 0 0 0 0 0 0 0 0 0
Wind_Speed_500mb
68 68 69 52 21 19 20 13 8 14 27 21 30 24 4 7 5 7 9 14 20 5 3 20 24 31 17 8 26 41 34 21 25 31 13 17 22 14 32 15 18 27 8 15
74 73 71 51 18 15 9 6 15 14 22 14 19 17 11 10 9 4 6 8 10 10 9 7 15 1 22 5 15 16 28 23 26 25 25 24 20 26 30 12 23 11 7 7
79 79 75 58 22 8 4 12 9 16 27 31 28 24 25 19 7 3 11 16 10 14 17 7 5 15 8 10 14 16 14 27 38 20 21 30 19 35 15 29 8 18 18 21
82 84 80 75 34 7 5 8 11 8 19 17 20 2 4 16 9 4 5 7 12 18 20 17 13 7 17 17 9 10 19 34 35 34 36 34 37 57 12 21 26 8 38 15
80 84 86 79 58 28 18 15 14 7 9 8 16 8 4 14 8 12 11 13 17 13 16 17 18 14 12 11 18 24 24 29 20 30 30 34 35 27 30 14 17 23 20 24
78 81 82 82 77 52 24 19 12 14 6 5 17 12 12 8 10 6 12 15 19 14 14 24 28 26 26 26 18 29 25 21 27 30 31 22 29 33 28 16 21 19 14 15
72 76 78 77 74 63 39 29 14 15 5 11 17 13 7 11 11 15 16 15 15 14 31 38 41 36 33 27 26 26 28 30 20 25 32 9 51 20 25 15 39 17 26 18
68 71 72 73 67 61 39 41 17 13 7 9 6 17 15 16 9 15 13 13 16 29 32 24 30 27 34 33 33 31 28 25 26 23 29 41 51 18 23 29 15 12 10 8
66 68 69 67 66 58 31 39 27 8 18 14 12 20 7 14 14 18 8 14 24 19 15 21 32 30 37 34 37 40 34 35 25 30 36 36 40 22 36 11 12 10 6 3
66 66 67 65 61 56 37 29 33 8 13 9 16 8 14 14 16 14 5 20 15 14 14 23 28 33 37 40 45 33 25 23 31 28 32 37 25 19 16 26 6 13 14 9
66 69 66 61 56 52 44 20 33 12 11 4 8 8 11 15 10 11 23 16 8 15 14 17 20 24 24 21 34 30 33 27 27 30 39 44 26 9 14 19 23 18 15 13
67 71 69 60 52 43 37 17 27 13 5 11 7 5 3 1 5 14 17 13 7 12 9 4 9 13 16 18 24 23 22 16 15 16 11 20 24 24 22 20 19 17 12 12
69 71 73 65 52 38 31 18 26 15 12 14 9 9 6 3 5 7 13 3 9 7 7 18 10 10 17 16 17 26 9 7 11 20 7 12 10 14 15 15 12 11 11 10
71 73 73 69 52 34 24 10 16 12 13 13 8 7 9 10 9 9 12 20 19 21 18 23 14 16 10 15 21 23 24 5 13 23 30 18 15 10 5 6 7 8 8 9
72 74 74 70 48 28 15 4 7 16 14 14 25 19 21 13 12 12 13 15 18 21 24 17 17 27 23 25 23 24 32 30 23 24 35 14 14 7 5 8 7 6 9 10
73 78 77 66 36 20 7 6 4 19 16 12 7 2 12 12 12 16 17 20 20 23 27 20 28 38 29 13 20 31 34 36 38 35 36 46 34 31 21 20 21 16 14 15
74 77 73 58 23 9 5 3 7 29 15 10 10 8 8 15 15 18 16 20 22 27 27 35 38 38 22 22 28 53 40 36 38 38 38 41 41 40 32 31 23 22 26 24
72 74 63 32 7 11 10 8 43 26 6 9 8 5 8 5 16 12 6 21 29 30 32 30 25 29 35 23 46 56 46 39 40 43 50 53 48 47 47 47 41 31 34 29
71 62 39 13 12 5 9 42 23 2 7 12 5 11 7 2 20 15 21 13 14 30 20 28 20 21 20 25 40 36 33 38 40 41 45 48 54 55 52 48 47 40 38 32
67 33 14 7 5 38 18 8 4 6 8 9 11 7 11 9 20 17 17 17 13 18 21 36 26 30 60 65 58 54 47 40 44 48 44 44 45 44 46 47 41 38 36 27
35 26 11 25 32 6 4 4 7 4 9 10 6 13 17 9 15 18 13 10 10 16 21 25 21 29 37 54 48 30 27 31 34 44 47 41 39 40 38 38 38 37 32 31
49 40 35 15 5 5 7 3 4 9 7 3 14 16 19 24 14 13 11 11 9 13 15 10 16 21 13 8 11 13 16 23 27 29 36 42 45 38 33 33 32 28 26 24
17 12 8 6 5 5 7 3 1 7 5 9 17 22 22 15 11 13 9 9 14 19 11 22 18 7 9 5 6 9 9 10 17 23 29 34 38 37 39 35 31 30 27 25
10 8 10 7 7 7 5 14 18 25 22 27 31 29 16 21 8 13 11 15 12 12 22 32 22 31 4 6 10 12 15 13 21 21 25 27 30 34 33 33 33 30 26 25
10 8 8 11 12 16 29 22 23 24 25 25 27 31 29 16 8 7 9 9 12 14 17 12 25 17 15 17 22 26 31 30 31 36 50 45 40 39 38 37 33 29 25 22
9 13 13 27 27 30 33 31 31 27 22 20 17 8 10 8 7 9 17 10 15 10 11 33 62 76 73 79 81 85 89 90 82 78 76 63 47 40 38 35 33 31 28 23
10 16 24 31 32 29 29 29 30 26 18 13 10 8 16 4 9 15 10 25 25 39 63 78 81 84 85 89 85 82 79 77 71 60 58 61 47 49 43 38 33 31 32 31
Wind_Direction_500mb
12 10 2 0 19 129 148 250 150 163 158 199 218 235 82 44 292 185 296 313 324 345 174 192 221 220 247 60 240 206 217 241 233 221 172 200 309 321 279 243 312 342 54 93
17 16 11 10 32 164 199 250 108 167 175 229 197 237 213 264 280 70 305 294 308 22 307 262 236 220 61 109 241 206 212 234 257 247 208 182 233 255 268 282 272 259 325 155
19 21 19 17 32 134 209 275 148 154 212 270 277 201 223 181 181 270 306 315 262 282 218 219 178 207 117 192 245 358 302 234 247 266 40 360 324 267 266 292 309 23 14 128
20 22 24 25 25 89 63 321 36 26 197 216 256 345 40 243 188 233 289 213 342 321 291 197 113 337 144 185 149 231 246 252 267 273 122 234 251 244 246 231 303 41 228 342
21 22 23 27 31 62 44 6 339 321 18 152 251 141 130 335 76 318 126 343 337 343 38 6 16 332 287 154 175 230 233 269 286 287 297 203 239 271 219 234 276 287 329 298
21 22 23 25 29 47 44 15 352 306 131 255 254 51 44 23 331 135 49 339 311 259 43 323 306 298 294 290 288 291 242 237 257 271 280 290 231 251 236 271 248 285 295 47
20 22 23 24 26 31 35 16 346 303 90 7 19 2 326 338 350 319 332 340 326 17 320 301 264 257 259 258 262 252 273 283 271 272 276 141 280 71 1 127 257 339 337 79
15 17 20 21 23 23 38 17 29 352 350 338 108 351 338 294 257 262 312 329 312 311 301 280 266 242 222 231 239 244 237 255 275 272 274 282 213 202 223 241 97 48 337 354
13 12 13 15 17 19 31 15 19 356 313 56 346 321 338 332 334 277 209 315 313 301 277 270 259 256 269 263 232 207 240 244 243 254 265 239 268 75 354 315 252 47 37 68
9 9 7 8 9 13 19 4 15 8 314 39 0 6 341 328 300 282 291 342 310 262 265 253 253 256 252 253 261 253 221 235 258 243 255 269 29 80 200 227 116 102 68 36
4 3 2 2 4 5 13 5 8 31 322 50 6 352 336 321 328 317 3 284 198 275 269 259 268 257 262 280 273 272 270 276 249 238 255 248 10 291 306 96 106 90 80 55
360 359 360 359 358 0 3 353 349 356 322 320 288 265 276 271 318 323 316 321 293 356 289 280 307 280 267 273 269 250 256 302 318 328 21 46 39 55 58 68 92 87 75 49
355 354 354 353 353 354 356 5 350 356 310 252 239 204 217 268 299 287 287 117 336 287 335 312 290 282 306 272 257 276 233 87 267 309 195 88 80 76 61 52 69 65 65 39
353 350 350 349 348 347 352 22 1 10 311 283 139 232 251 239 268 278 268 276 276 268 279 277 280 275 268 269 290 294 282 159 272 264 266 271 233 190 91 50 30 28 26 10
350 349 347 346 347 348 354 23 31 23 5 317 307 292 257 259 249 261 267 269 265 261 254 240 250 261 274 269 269 263 261 264 262 259 267 307 308 193 137 297 300 307 329 331
348 346 343 343 347 350 59 214 24 1 355 295 284 136 250 228 255 266 263 262 267 265 270 268 265 257 255 259 261 263 262 252 259 269 270 269 266 249 249 275 278 267 288 287
347 346 341 340 345 20 231 314 296 330 336 256 264 210 168 235 263 261 255 252 252 259 268 259 256 263 247 257 263 265 267 264 264 263 262 263 260 260 253 263 270 263 273 275
344 341 336 342 24 45 14 253 321 310 266 249 274 251 205 193 277 266 228 272 273 248 245 261 262 262 254 251 253 266 272 271 266 261 256 253 250 251 253 252 259 256 264 270
344 340 344 10 32 308 271 302 316 189 226 300 262 302 22 21 260 277 270 230 274 263 236 244 253 241 234 233 248 260 269 274 271 259 255 250 250 251 249 254 254 247 255 259
346 359 328 284 302 311 323 2 161 197 203 238 264 343 285 325 334 300 298 279 251 275 250 250 235 250 254 255 264 270 276 272 272 274 258 249 247 248 244 243 242 245 250 251
352 336 290 285 311 1 261 271 253 153 231 191 270 331 322 342 318 323 282 293 303 272 263 241 255 250 244 248 239 244 260 266 267 256 258 257 254 250 239 240 241 239 242 241
323 305 293 312 313 260 270 254 185 227 358 107 308 347 322 305 321 275 276 257 244 258 301 254 251 266 299 225 221 222 255 268 272 268 260 249 247 242 240 240 241 231 231 242
319 328 290 297 277 316 252 323 231 341 6 313 306 298 307 289 239 276 264 261 250 273 261 251 262 358 110 170 219 228 241 281 296 283 267 254 243 235 235 233 229 233 237 242
290 293 301 258 212 244 327 336 327 329 314 296 304 300 288 289 250 238 255 237 250 247 240 252 266 37 84 209 226 228 229 306 329 316 283 262 243 231 224 227 233 232 232 244
270 264 249 235 268 282 301 307 304 294 301 305 301 290 264 254 259 254 262 261 240 228 240 276 46 21 347 313 302 290 289 297 293 300 298 285 252 239 232 226 222 220 228 234
244 239 256 264 270 294 320 319 312 314 314 305 292 298 292 227 233 249 229 238 237 284 339 324 312 303 289 280 276 273 273 277 281 276 266 264 272 231 222 215 216 222 223 222
236 240 252 274 283 290 303 311 304 307 300 278 286 250 231 263 239 237 246 256 280 309 298 289 286 283 280 280 277 273 271 268 264 259 251 249 263 230 215 218 213 222 223 217
Wind_Speed_850mb
68 68 69 52 21 19 20 13 8 14 27 21 30 24 4 7 5 7 9 14 20 5 3 20 24 31 17 8 26 41 34 21 25 31 13 17 22 14 32 15 18 27 8 15
74 73 71 51 18 15 9 6 15 14 22 14 19 17 11 10 9 4 6 8 10 10 9 7 15 1 22 5 15 16 28 23 26 25 25 24 20 26 30 12 23 11 7 7
79 79 75 58 22 8 4 12 9 16 27 31 28 24 25 19 7 3 11 16 10 14 17 7 5 15 8 10 14 16 14 27 38 20 21 30 19 35 15 29 8 18 18 21
82 84 80 75 34 7 5 8 11 8 19 17 20 2 4 16 9 4 5 7 12 18 20 17 13 7 17 17 9 10 19 34 35 34 36 34 37 57 12 21 26 8 38 15
80 84 86 79 58 28 18 15 14 7 9 8 16 8 4 14 8 12 11 13 17 13 16 17 18 14 12 11 18 24 24 29 20 30 30 34 35 27 30 14 17 23 20 24
78 81 82 82 77 52 24 19 12 14 6 5 17 12 12 8 10 6 12 15 19 14 14 24 28 26 26 26 18 29 25 21 27 30 31 22 29 33 28 16 21 19 14 15
72 76 78 77 74 63 39 29 14 15 5 11 17 13 7 11 11 15 16 15 15 14 31 38 41 36 33 27 26 26 28 30 20 25 32 9 51 20 25 15 39 17 26 18
68 71 72 73 67 61 39 41 17 13 7 9 6 17 15 16 9 15 13 13 16 29 32 24 30 27 34 33 33 31 28 25 26 23 29 41 51 18 23 29 15 12 10 8
66 68 69 67 66 58 31 39 27 8 18 14 12 20 7 14 14 18 8 14 24 19 15 21 32 30 37 34 37 40 34 35 25 30 36 36 40 22 36 11 12 10 6 3
66 66 67 65 61 56 37 29 33 8 13 9 16 8 14 14 16 14 5 20 15 14 14 23 28 33 37 40 45 33 25 23 31 28 32 37 25 19 16 26 6 13 14 9
66 69 66 61 56 52 44 20 33 12 11 4 8 8 11 15 10 11 23 16 8 15 14 17 20 24 24 21 34 30 33 27 27 30 39 44 26 9 14 19 23 18 15 13
67 71 69 60 52 43 37 17 27 13 5 11 7 5 3 1 5 14 17 13 7 12 9 4 9 13 16 18 24 23 22 16 15 16 11 20 24 24 22 20 19 17 12 12
69 71 73 65 52 38 31 18 26 15 12 14 9 9 6 3 5 7 13 3 9 7 7 18 10 10 17 16 17 26 9 7 11 20 7 12 10 14 15 15 12 11 11 10
71 73 73 69 52 34 24 10 16 12 13 13 8 7 9 10 9 9 12 20 19 21 18 23 14 16 10 15 21 23 24 5 13 23 30 18 15 10 5 6 7 8 8 9
72 74 74 70 48 28 15 4 7 16 14 14 25 19 21 13 12 12 13 15 18 21 24 17 17 27 23 25 23 24 32 30 23 24 35 14 14 7 5 8 7 6 9 10
73 78 77 66 36 20 7 6 4 19 16 12 7 2 12 12 12 16 17 20 20 23 27 20 28 38 29 13 20 31 34 36 38 35 36 46 34 31 21 20 21 16 14 15
74 77 73 58 23 9 5 3 7 29 15 10 10 8 8 15 15 18 16 20 22 27 27 35 38 38 22 22 28 53 40 36 38 38 38 41 41 40 32 31 23 22 26 24
72 74 63 32 7 11 10 8 43 26 6 9 8 5 8 5 16 12 6 21 29 30 32 30 25 29 35 23 46 56 46 39 40 43 50 53 48 47 47 47 41 31 34 29
71 62 39 13 12 5 9 42 23 2 7 12 5 11 7 2 20 15 21 13 14 30 20 28 20 21 20 25 40 36 33 38 40 41 45 48 54 55 52 48 47 40 38 32
67 33 14 7 5 38 18 8 4 6 8 9 11 7 11 9 20 17 17 17 13 18 21 36 26 30 60 65 58 54 47 40 44 48 44 44 45 44 46 47 41 38 36 27
35 26 11 25 32 6 4 4 7 4 9 10 6 13 17 9 15 18 13 10 10 16 21 25 21 29 37 54 48 30 27 31 34 44 47 41 39 40 38 38 38 37 32 31
49 40 35 15 5 5 7 3 4 9 7 3 14 16 19 24 14 13 11 11 9 13 15 10 16 21 13 8 11 13 16 23 27 29 36 42 45 38 33 33 32 28 26 24
17 12 8 6 5 5 7 3 1 7 5 9 17 22 22 15 11 13 9 9 14 19 11 22 18 7 9 5 6 9 9 10 17 23 29 34 38 37 39 35 31 30 27 25
10 8 10 7 7 7 5 14 18 25 22 27 31 29 16 21 8 13 11 15 12 12 22 32 22 31 4 6 10 12 15 13 21 21 25 27 30 34 33 33 33 30 26 25
10 8 8 11 12 16 29 22 23 24 25 25 27 31 29 16 8 7 9 9 12 14 17 12 25 17 15 17 22 26 31 30 31 36 50 45 40 39 38 37 33 29 25 22
9 13 13 27 27 30 33 31 31 27 22 20 17 8 10 8 7 9 17 10 15 10 11 33 62 76 73 79 81 85 89 90 82 78 76 63 47 40 38 35 33 31 28 23
10 16 24 31 32 29 29 29 30 26 18 13 10 8 16 4 9 15 10 25 25 39 63 78 81 84 85 89 85 82 79 77 71 60 58 61 47 49 43 38 33 31 32 31
Wind_Direction_850mb
12 10 2 0 19 129 148 250 150 163 158 199 218 235 82 44 292 185 296 313 324 345 174 192 221 220 247 60 240 206 217 241 233 221 172 200 309 321 279 243 312 342 54 93
17 16 11 10 32 164 199 250 108 167 175 229 197 237 213 264 280 70 305 294 308 22 307 262 236 220 61 109 241 206 212 234 257 247 208 182 233 255 268 282 272 259 325 155
19 21 19 17 32 134 209 275 148 154 212 270 277 201 223 181 181 270 306 315 262 282 218 219 178 207 117 192 245 358 302 234 247 266 40 360 324 267 266 292 309 23 14 128
20 22 24 25 25 89 63 321 36 26 197 216 256 345 40 243 188 233 289 213 342 321 291 197 113 337 144 185 149 231 246 252 267 273 122 234 251 244 246 231 303 41 228 342
21 22 23 27 31 62 44 6 339 321 18 152 251 141 130 335 76 318 126 343 337 343 38 6 16 332 287 154 175 230 233 269 286 287 297 203 239 271 219 234 276 287 329 298
21 22 23 25 29 47 44 15 352 306 131 255 254 51 44 23 331 135 49 339 311 259 43 323 306 298 294 290 288 291 242 237 257 271 280 290 231 251 236 271 248 285 295 47
20 22 23 24 26 31 35 16 346 303 90 7 19 2 326 338 350 319 332 340 326 17 320 301 264 257 259 258 262 252 273 283 271 272 276 141 280 71 1 127 257 339 337 79
15 17 20 21 23 23 38 17 29 352 350 338 108 351 338 294 257 262 312 329 312 311 301 280 266 242 222 231 239 244 237 255 275 272 274 282 213 202 223 241 97 48 337 354
13 12 13 15 17 19 31 15 19 356 313 56 346 321 338 332 334 277 209 315 313 301 277 270 259 256 269 263 232 207 240 244 243 254 265 239 268 75 354 315 252 47 37 68
9 9 7 8 9 13 19 4 15 8 314 39 0 6 341 328 300 282 291 342 310 262 265 253 253 256 252 253 261 253 221 235 258 243 255 269 29 80 200 227 116 102 68 36
4 3 2 2 4 5 13 5 8 31 322 50 6 352 336 321 328 317 3 284 198 275 269 259 268 257 262 280 273 272 270 276 249 238 255 248 10 291 306 96 106 90 80 55
360 359 360 359 358 0 3 353 349 356 322 320 288 265 276 271 318 323 316 321 293 356 289 280 307 280 267 273 269 250 256 302 318 328 21 46 39 55 58 68 92 87 75 49
355 354 354 353 353 354 356 5 350 356 310 252 239 204 217 268 299 287 287 117 336 287 335 312 290 282 306 272 257 276 233 87 267 309 195 88 80 76 61 52 69 65 65 39
353 350 350 349 348 347 352 22 1 10 311 283 139 232 251 239 268 278 268 276 276 268 279 277 280 275 268 269 290 294 282 159 272 264 266 271 233 190 91 50 30 28 26 10
350 349 347 346 347 348 354 23 31 23 5 317 307 292 257 259 249 261 267 269 265 261 254 240 250 261 274 269 269 263 261 264 262 259 267 307 308 193 137 297 300 307 329 331
348 346 343 343 347 350 59 214 24 1 355 295 284 136 250 228 255 266 263 262 267 265 270 268 265 257 255 259 261 263 262 252 259 269 270 269 266 249 249 275 278 267 288 287
347 346 341 340 345 20 231 314 296 330 336 256 264 210 168 235 263 261 255 252 252 259 268 259 256 263 247 257 263 265 267 264 264 263 262 263 260 260 253 263 270 263 273 275
344 341 336 342 24 45 14 253 321 310 266 249 274 251 205 193 277 266 228 272 273 248 245 261 262 262 254 251 253 266 272 271 266 261 256 253 250 251 253 252 259 256 264 270
344 340 344 10 32 308 271 302 316 189 226 300 262 302 22 21 260 277 270 230 274 263 236 244 253 241 234 233 248 260 269 274 271 259 255 250 250 251 249 254 254 247 255 259
346 359 328 284 302 311 323 2 161 197 203 238 264 343 285 325 334 300 298 279 251 275 250 250 235 250 254 255 264 270 276 272 272 274 258 249 247 248 244 243 242 245 250 251
352 336 290 285 311 1 261 271 253 153 231 191 270 331 322 342 318 323 282 293 303 272 263 241 255 250 244 248 239 244 260 266 267 256 258 257 254 250 239 240 241 239 242 241
323 305 293 312 313 260 270 254 185 227 358 107 308 347 322 305 321 275 276 257 244 258 301 254 251 266 299 225 221 222 255 268 272 268 260 249 247 242 240 240 241 231 231 242
319 328 290 297 277 316 252 323 231 341 6 313 306 298 307 289 239 276 264 261 250 273 261 251 262 358 110 170 219 228 241 281 296 283 267 254 243 235 235 233 229 233 237 242
290 293 301 258 212 244 327 336 327 329 314 296 304 300 288 289 250 238 255 237 250 247 240 252 266 37 84 209 226 228 229 306 329 316 283 262 243 231 224 227 233 232 232 244
270 264 249 235 268 282 301 307 304 294 301 305 301 290 264 254 259 254 262 261 240 228 240 276 46 21 347 313 302 290 289 297 293 300 298 285 252 239 232 226 222 220 228 234
244 239 256 264 270 294 320 319 312 314 314 305 292 298 292 227 233 249 229 238 237 284 339 324 312 303 289 280 276 273 273 277 281 276 266 264 272 231 222 215 216 222 223 222
236 240 252 274 283 290 303 311 304 307 300 278 286 250 231 263 239 237 246 256 280 309 298 289 286 283 280 280 277 273 271 268 264 259 251 249 263 230 215 218 213 222 223 217